Weather History for Deadhorse, AK

Change the Weather History Date:

Monday, February 27, 2012

  Actual Average Record
Temperature  
Mean Temperature -35 °F -  
Max Temperature -27 °F -7 °F 22 °F (1988)
Min Temperature -43 °F -20 °F -43 °F (1997)
Degree Days  
Heating Degree Days 100    
Moisture  
Dew Point -34 °F    
Average Humidity 76    
Maximum Humidity 77    
Minimum Humidity 73    
Precipitation  
Precipitation 0.00 in - - ()
Sea Level Pressure  
Sea Level Pressure 30.34 in    
Wind  
Wind Speed 7 mph (WNW)    
Max Wind Speed 12 mph    
Max Gust Speed -    
Visibility 6 miles    
Events      
Averages and records for this station are not official NWS values.
T = Trace of Precipitation, MM = Missing Value Source: NWS Daily Summary

Daily Weather History Graph

Daily Weather History Graph

Search for Another Location

Airport:

Trip Planner

Search our weather history database for the weather conditions in past years. The results will help you decide how hot, cold, wet, or windy it might be!

Date:

Astronomy

Feb. 27, 2012 Rise Set
Actual Time 8:32 AM AKST 5:42 PM AKST
Civil Twilight 7:29 AM AKST 6:46 PM AKST
Nautical Twilight 6:18 AM AKST 7:57 PM AKST
Astronomical Twilight 5:03 AM AKST 9:12 PM AKST
Moon 6:54 AM AKST (2/27) 2:53 AM AKST (2/27)
Length of Visible Light 11h 17m
Length of Day
9h 10m
Waxing Crescent, 30% of the Moon is Illuminated
Feb 27
Waxing Crescent
Feb 29
First Quarter
Mar 8
Full
Mar 14
Last Quarter
Mar 22
New

Hourly Weather History & Observations

Time (AKST) Temp. Windchill Dew Point Humidity Pressure Visibility Wind Dir Wind Speed Gust Speed Precip Events Conditions
12:53 AM -27.9 °F -50.9 °F -33.0 °F 77% 30.07 in 10.0 mi NE 10.4 mph - N/A   Mostly Cloudy
1:53 AM -27.9 °F -49.6 °F -34.1 °F 73% 30.08 in 10.0 mi NE 9.2 mph - N/A   Scattered Clouds
2:53 AM -29.0 °F -49.5 °F -34.1 °F 77% 30.10 in 9.0 mi NNE 8.1 mph - N/A   Scattered Clouds
3:53 AM -29.0 °F -46.0 °F -34.1 °F 77% 30.11 in 10.0 mi NNE 5.8 mph - N/A   Scattered Clouds
4:53 AM -32.1 °F -44.5 °F - N/A% 30.13 in 9.0 mi NNE 3.5 mph - N/A   Scattered Clouds
5:25 AM -32.8 °F -50.5 °F - N/A% 30.13 in 4.0 mi North 5.8 mph - N/A   Partly Cloudy
5:53 AM -34.1 °F -52.0 °F - N/A% 30.15 in 8.0 mi North 5.8 mph - N/A   Mostly Cloudy
6:53 AM -32.1 °F -47.3 °F - N/A% 30.16 in 7.0 mi North 4.6 mph - N/A   Overcast
7:53 AM -32.1 °F -44.5 °F - N/A% 30.18 in 6.0 mi North 3.5 mph - N/A   Overcast
8:53 AM -32.1 °F -44.5 °F - N/A% 30.21 in 3.0 mi NNW 3.5 mph - N/A   Overcast
9:49 AM -34.6 °F -50.3 °F - N/A% 30.22 in 6.0 mi NW 4.6 mph - N/A   Overcast
9:53 AM -34.1 °F -46.8 °F - N/A% 30.23 in 5.0 mi NW 3.5 mph - N/A   Mostly Cloudy
10:53 AM -35.0 °F -47.8 °F - N/A% 30.25 in 6.0 mi WNW 3.5 mph - N/A   Overcast
11:53 AM -33.0 °F -45.5 °F - N/A% 30.28 in 7.0 mi NNW 3.5 mph - N/A   Mostly Cloudy
12:53 PM -33.0 °F -45.5 °F - N/A% 30.31 in 6.0 mi West 3.5 mph - N/A   Mostly Cloudy
1:53 PM -34.1 °F -52.0 °F - N/A% 30.33 in 6.0 mi WSW 5.8 mph - N/A   Overcast
2:53 PM -34.1 °F -52.0 °F - N/A% 30.36 in 6.0 mi West 5.8 mph - N/A   Overcast
3:53 PM -35.0 °F -53.1 °F - N/A% 30.38 in 3.0 mi West 5.8 mph - N/A   Overcast
4:53 PM -36.0 °F -56.3 °F - N/A% 30.40 in 5.0 mi West 6.9 mph - N/A   Overcast
5:53 PM -38.0 °F -56.7 °F - N/A% 30.43 in 4.0 mi West 5.8 mph - N/A   Overcast
6:53 PM -41.1 °F -64.2 °F - N/A% 30.45 in 5.0 mi West 8.1 mph - N/A   Clear
7:27 PM -41.8 °F -63.3 °F - N/A% 30.45 in 3.0 mi West 6.9 mph - N/A   Mostly Cloudy
7:34 PM -41.8 °F -63.3 °F - N/A% 30.45 in 2.0 mi West 6.9 mph - N/A   Mostly Cloudy
7:40 PM -41.8 °F -63.3 °F - N/A% 30.45 in 3.0 mi West 6.9 mph - N/A   Overcast
7:53 PM -43.1 °F - - N/A% 30.48 in 3.0 mi North - - N/A   Mostly Cloudy
8:53 PM -43.1 °F -66.6 °F - N/A% 30.50 in 4.0 mi West 8.1 mph - N/A   Overcast
9:43 PM -41.8 °F -66.7 °F - N/A% 30.51 in 6.0 mi West 9.2 mph - N/A   Mostly Cloudy
9:53 PM -43.1 °F -66.6 °F - N/A% 30.52 in 6.0 mi West 8.1 mph - N/A   Mostly Cloudy
10:44 PM -43.6 °F -70.4 °F - N/A% 30.53 in 9.0 mi WSW 10.4 mph - N/A   Overcast
10:53 PM -43.1 °F -69.7 °F - N/A% 30.55 in 6.0 mi WSW 10.4 mph - N/A   Overcast
11:05 PM -43.6 °F -70.4 °F - N/A% 30.54 in 6.0 mi West 10.4 mph - N/A   Overcast
11:38 PM -43.6 °F -70.4 °F - N/A% 30.55 in 7.0 mi WSW 10.4 mph - N/A   Scattered Clouds
11:53 PM -43.1 °F -71.1 °F - N/A% 30.57 in 7.0 mi WSW 11.5 mph - N/A   Scattered Clouds